CYGFM07 (41890 NORAD) Tracking and Keplerian Element Data

This shows tracking and keplerian element data for the satellite.

Feedback or suggestion? Click here.




ElementValue
Catalog41890
NameCYGFM07
Epoch Orbit45173
Epoch Day34.81414852
Epoch Year2025
RAAN246.216
Inclination34.9485
Eccentricity0.0007763
Argument of Perigee192.6785
Mean Anonmoly167.3739
Mean Motion15.37275407
Decay Rate0.00018724
L11 41890U 16078G 25034.81414852 .00018724 00000+0 49830-3 0 9999
L22 41890 34.9485 246.2160 0007763 192.6785 167.3739 15.37275407451736



Live tracking and technical data element details for CYGFM07 (NORAD 41890). CYGFM07 can be tracked NOW for your location showing map with azimuth and elevation plus other details from your city location.







IsCatalogInMostPopularTable: catalog: 41890, numindb: 676
Update: records affected: 1



GetName: 41890 CYGFM07

Hit Count: updated at: Sat, 17 May 2025 05:22:32 GMT